Location: Newark
(41.7661°N, 124.2169°W)
Time: 02:37:24
(UTC+00:00)

Hubble Space Telescope - Visible Passes

Search period start: 21 November 2019 00:00
Search period end: 01 December 2019 00:00
Orbit: 536 x 540 km, 28.5° (Epoch: 19 November)

Date Brightness Start Highest point End Pass type
(mag) Time Alt. Az. Time Alt. Az. Time Alt. Az.
21 Nov 3.6 03:30:37 10° SSW 03:30:43 10° SSW 03:30:43 10° SSW visible
22 Nov 3.4 03:19:51 10° SSW 03:20:44 12° SSW 03:20:44 12° SSW visible
23 Nov 3.4 01:30:02 10° S 01:30:38 10° S 01:31:15 10° SSE visible
23 Nov 3.3 03:09:10 10° SSW 03:10:47 13° S 03:10:47 13° S visible
24 Nov 3.3 02:58:34 10° SSW 03:00:16 12° S 03:00:51 12° S visible
25 Nov 3.4 02:48:05 10° SSW 02:49:31 12° S 02:50:57 10° SSE visible
26 Nov 3.5 02:37:49 10° SSW 02:38:47 11° S 02:39:46 10° S visible
